Regional Weather Roundup
Issued by NWS Wakefield, VA

Home | Current Version | Previous Version | Text Only | Print | Product List | Glossary On
Versions: 1 2 3 4 5 6 7 8 9 10 11 12 13 14 15 16 17 18 19 20 21 22 23 24 25 26 27 28
000
ASUS41 KAKQ 180215
RWRAKQ

REGIONAL WEATHER ROUNDUP
NATIONAL WEATHER SERVICE WAKEFIELD VA
1000 PM EDT THU AUG 17 2017

Note: "fair" indicates few or no clouds below 12,000 feet with no
significant weather and/or obstructions to visibility. * = Denotes
station may not report precipitation (e.g., rain,snow,etc.),
thunder or fog.

VAZ042-051-052>054-056-180300-
NORTHERN VIRGINIA

CITY           SKY/WX    TMP DP  RH WIND       PRES   REMARKS
WASH NATIONAL  MOCLDY    82  75  79 S12       29.95R
DULLES         CLOUDY    80  73  79 S7        29.94S
FORT BELVOIR   CLOUDY    78  73  83 SE3       29.94S
QUANTICO       CLOUDY    81  77  88 S8        29.95R
FREDERICKSBRG* CLOUDY    80  74  82 S5        29.94S
STAFFORD*      CLOUDY    77  75  94 CALM      29.99R
WARRENTON      CLOUDY    80  72  76 SE3       29.94S
CULPEPER*      MOCLDY    80  76  86 S5        29.95F
MANASSAS*      CLOUDY    77  73  87 S6        29.95R
LEESBURG*      PTCLDY    81  75  83 S7        29.95R
WINCHESTER     CLOUDY    77  73  88 S3        29.94R
FRONT ROYAL*   CLOUDY    81  73  78 CALM      29.93R
LURAY*         CLOUDY    81  73  78 SW8       29.96R
$$

VAZ048-049-060>072-079>083-180300-
CENTRAL AND SOUTH CENTRAL VIRGINIA

CITY           SKY/WX    TMP DP  RH WIND       PRES   REMARKS
RICHMOND       PTCLDY    78  74  87 S6        29.97R
CHESTERFIELD*  FAIR      78  75  90 S5        29.97
PETERSBURG*    CLEAR     76  74  92 CALM      29.98S
HANOVER        CLEAR     80  73  79 S6        29.97R
TAPPAHANNOCK*  CLEAR     79  70  73 CALM      29.97R
QUINTON*       FAIR      78  76  95 CALM      29.96R
CHARLOTTSVILLE CLOUDY    79  77  94 SW3       29.96F
GORDONSVILLE*  CLOUDY    78  78 100 CALM      29.95S
ORANGE*        DRIZZLE   79  73  83 CALM      29.95S
LOUISA*        CLOUDY    79  73  83 S5        29.96S
BUMPASS*       FAIR      79  76  90 CALM      29.96F
FARMVILLE*     PTCLDY    79  76  91 CALM      29.95S
CREWE*         CLOUDY    78  74  87 CALM      29.96F
FORT PICKETT*  MOCLDY   N/A N/A N/A S5        29.97F
CHASE CITY*    FAIR      78  78  99 SE5       29.98S
CLARKSVILLE*   FAIR      77  77 100 SE3       29.97S
SOUTH HILL*    CLEAR     76  76 100 S5        30.04S
LAWRENCEVILLE* FAIR      77  76  95 S3        29.98S
EMPORIA*       CLOUDY    77  75  94 CALM      29.99S
$$

VAZ088>098-180300-
SOUTHEAST VIRGINIA

CITY           SKY/WX    TMP DP  RH WIND       PRES   REMARKS
NORFOLK        PTCLDY    80  74  81 S8        29.98S
VIRGINIA BEACH CLOUDY    78  72  81 S7        29.98S
NORFOLK NAVAL  CLOUDY    81  73  76 S7        29.99S
WEST POINT*    CLEAR     79  73  81 SE3       29.97F
SALUDA*        FAIR      77  75  94 S8        29.96F
NEWPORT NEWS   CLOUDY    81  72  74 S10       29.98R
LANGLEY AFB    NOT AVBL
FORT EUSTIS    NOT AVBL
WILLIAMSBURG*  CLEAR     82  75  78 S8        29.98S
HR EXEC AP*    FAIR      77  72  83 S5        29.97S
FRANKLIN*      CLOUDY    78  74  87 S6        29.98S
US460-WAKEFLD  PTCLDY    78  75  90 VRB5      29.98R
$$

VAZ020-022-025-037-045-180300-
WEST CENTRAL AND SOUTHWEST VIRGINIA

CITY           SKY/WX    TMP DP  RH WIND       PRES   REMARKS
STAUNTON*      CLOUDY    74  73  95 CALM      30.01R
WAYNESBORO*    CLOUDY    75  74  97 CALM      30.01R
HOT SPRINGS VA CLOUDY    72  64  78 CALM      30.14F
LYNCHBURG      CLEAR     80  75  84 S7        29.98R
DANVILLE       CLEAR     79  76  90 S5        29.97R
SOUTH BOSTON*  FAIR      77  76  95 SE3       29.97S
MARTINSVILLE   PTCLDY    76  74  96 CALM      30.00R
ROANOKE        CLEAR     76  74  93 CALM      30.00F
BLACKSBURG     CLEAR     75  72  90 CALM      30.08R
DUBLIN*        CLEAR     76  71  86 CALM      30.06S
MARION*        CLEAR     74  26  16 W3        30.11R
HILLSVILLE*    PTCLDY    74  68  81 CALM      30.09R
RICHLANDS*     FAIR      73  64  73 CALM      30.09R
WISE*          CLEAR     72  72 100 S3        30.10R
ABINGDON*      CLEAR     75  73  93 CALM      30.06R
$$

MDZ021>025-VAZ099-100-180300-
SOUTHERN MARYLAND AND THE DELMARVA PENINSULA

CITY           SKY/WX    TMP DP  RH WIND       PRES   REMARKS
PATUXENT RIVER PTCLDY    78  71  79 S8        29.96R
BAY BRIDGE APT CLEAR     79  72  78 S7        29.96R
LEONARDTOWN    CLEAR     77  70  78 SE3       29.98R
DOVER          CLEAR     75  73  94 SE7       29.95R
GEORGETOWN     PTCLDY    76  70  82 S7        29.98R
EASTON         NOT AVBL
CAMBRIDGE      CLEAR     75  70  83 SE7       29.96S
SALISBURY      CLEAR     75  72  90 S8        29.98R
OCEAN CITY     CLEAR     77  74  90 SW7       30.00R
WALLOPS ISLAND CLEAR     76  75  97 S12       29.99S
ACCOMACK*      CLEAR     77  73  87 S7        29.99S
$$

NCZ012>017-030>032-180300-
NORTH CENTRAL AND EASTERN NORTH CAROLINA

CITY           SKY/WX    TMP DP  RH WIND       PRES   REMARKS
ROANOKE RAPIDS FAIR      75  75 100 CALM      29.98S
RALEIGH        MOCLDY    79  74  84 S6        29.99R
ELIZABETH CITY PTCLDY    80  76  87 S6        29.99S
AHOSKIE*         N/A     75  74  99 CALM      29.98S FOG
EDENTON*       PTCLDY    82  74  77 CALM      30.00R
CURRITUCK*     PTCLDY    79  73  80 CALM      30.00S
KILL DEVIL HLS PTCLDY    79  73  81 CALM      29.99S
MANTEO         PTCLDY    81  72  74 S12       30.00S
CAPE HATTERAS  CLEAR     83  75  77 S9        30.00F
TARBORO*       NOT AVBL
GOLDSBORO      CLEAR     76  76 100 CALM      29.98R
WASHINGTON     MOCLDY    80  77  90 S3        29.99R FOG
GREENVILLE     MOCLDY    81  79  94 CALM      30.00S
NEW BERN       CLOUDY    79  79 100 S3        30.00R
WILMINGTON     CLOUDY    79  78  97 CALM      29.98S
$$

VAZ048-180300-
ELSEWHERE

CITY           SKY/WX    TMP DP  RH WIND       PRES   REMARKS
HARRISBURG PA  CLOUDY    80  73  79 S8        29.93R
BALTIMORE      PTCLDY    77  75  93 S3        29.95R
ANNAPOLIS      CLEAR     80  76  87 S10G18    29.95R
ANDREWS AFB    CLEAR     76  73  89 S7        29.95R
PHILADELPHIA   CLOUDY    78  70  76 S8        29.96R
HENDERSON NC   CLEAR     73  72  94 S5        29.99R
GREENSBORO     CLOUDY    82  76  81 S10       29.98R
ROCKY MOUNT    PTCLDY    75  75 100 CALM      29.99R
$$

VAZ100-180300-
MARINE

STATION/POSITION TIME  TEMP    WIND        PRES    WAVE   SWELL
                       AIR SEA DIR/SP/G            HT/PER HT/PER
                 (UTC) (F)     (DEG/KT/KT) (MB)    (FT/S) (FT/S)
BRANDYWINE LGT   0142   77     180/ 12/ 14 1015.2R
CAPE MAY NJ      0148   76 78  160/  6/ 10 1014.6R
LEWES DE         0142   78 77  170/  4/  6 1014.6R
15NM E FENWICK I 0050   78 78  170/ 12/ 14 1015.7    2/ 7   2/ 7
OCEAN-CITY-INLET 0142   77 77  200/  9/ 13 1015.9R
WACHAPREAGUE VA  0142   79 84  200/ 10/ 14 1015.6R
THOMAS POINT MD  0100   81 80  170/ 21/ 23   N/A
GOOSES REEF MD   0150   81     170/ 16/ 19 1014.9R
COVE POINT MD    0142   80     190/ 15/ 18 1015.1S
SOLOMONS ISLAND  0142   79 82  150/  9/ 11   N/A
BISHOPS HEAD MD  0142   81 83  170/ 18/ 19 1014.6S
PINEY POINT MD   0142          180/ 11/ 13   N/A
POTOMAC MD       0150   81     180/ 16/ 17 1013.8R
CAMBRIDGE MD     0142   78 82              1015.5R
LEWISETTA VA     0142   79 84  190/  8/ 10 1014.4R
RAPPAHANNOCK LGT 0142          150/ 14/ 16 1015.8R
STINGRAY PT      0150   81     190/ 17/ 19 1015.1R
YORK RVR RNG VA  0142   81     180/ 13/ 14 1015.4R
YORKTOWN VA      0142   81 81  170/  8/ 10 1014.7R
JAMESTOWN VA     0150          160/ 10/ 12   N/A
DOMINION TERM VA 0142   81     160/ 10/ 12 1015.2R
KIPTOPEKE VA     0142      80  170/ 12/ 15   N/A
CHES BAY BRIDGE  0142   79 76  190/ 10/ 13 1015.2R
CAPE HENRY VA    0142   78     160/  8/ 12   N/A
WILLOUBY STN VA  0142   80     150/ 11/ 12 1015.1R
S CRANEY ISL VA  0142   81     170/ 12/ 14 1015.0R
CAPE HENRY BUOY  0130      78                N/A     3/ 3
1ST LANDING BUOY 0150   79                 1015.2R
64NM E OF VA BCH 0050   79 80  160/  8/ 10 1016.4    2/ 8   2/ 8
DUCK PIER NC     0142   80 78  160/  6/  7 1015.5R
44100 DUCK FRF   0105      80                N/A     2/ 8
44056 DUCK FRF   0200      79                N/A     2/ 3
OREGON INLET NC  0142   81 84  160/  6/ 10 1015.8S
HATTERAS NC      0142   82 85  160/  6/  9 1015.8F
DIAMOND SHLS NC  0050   83 86  180/  8/ 10 1016.3    2/ 7   2/ 7
CAPE LOOKOUT NC  0100   83     170/  6/  7 1015.5F
$$




USA.gov is the U.S. government's official web portal to all federal, state and local government web resources and services.